• In Belarus
  • List of Countries
  • For 7 days
  • Water Temperature
  • Satellite Maps
  • Weather Map
  • Weather Widgets
  • user-avatar
    Login

    Hourly Weather Perth

    Today, 21 April, Sunday

    Time Temperature Precipitation Wind Pressure Humidity
    00:00 +13°C° 0 mm 2 mps 769 mmHg 65%
    01:00 +13°C° 0 mm 2 mps 769 mmHg 65%
    02:00 +12°C° 0 mm 2 mps 769 mmHg 66%
    03:00 +12°C° 0 mm 2 mps 769 mmHg 66%
    04:00 +12°C° 0 mm 2 mps 769 mmHg 67%
    05:00 +12°C° 0 mm 2 mps 769 mmHg 67%
    06:00 +13°C° 0 mm 2 mps 769 mmHg 65%
    07:00 +12°C° 0 mm 3 mps 769 mmHg 62%
    08:00 +14°C° 0 mm 2 mps 769 mmHg 59%
    09:00 +16°C° 0 mm 2 mps 769 mmHg 51%
    10:00 +18°C° 0 mm 2 mps 769 mmHg 43%
    11:00 +20°C° 0 mm 2 mps 769 mmHg 35%
    12:00 +21°C° 0 mm 2 mps 768 mmHg 32%
    13:00 +23°C° 0 mm 2 mps 768 mmHg 29%
    14:00 +25°C° 0 mm 1 mps 767 mmHg 27%
    15:00 +24°C° 0 mm 1 mps 767 mmHg 30%
    16:00 +23°C° 0 mm 2 mps 767 mmHg 33%
    17:00 +23°C° 0 mm 2 mps 766 mmHg 36%
    18:00 +20°C° 0 mm 2 mps 767 mmHg 39%
    19:00 +19°C° 0 mm 2 mps 767 mmHg 42%
    20:00 +18°C° 0 mm 2 mps 767 mmHg 45%
    21:00 +17°C° 0 mm 2 mps 767 mmHg 43%
    22:00 +17°C° 0 mm 2 mps 767 mmHg 41%
    23:00 +17°C° 0 mm 2 mps 767 mmHg 39%

    Tomorrow, 22 April, Monday

    Time Temperature Precipitation Wind Pressure Humidity
    00:00 +17°C° 0 mm 2 mps 767 mmHg 39%
    01:00 +16°C° 0 mm 3 mps 766 mmHg 39%
    02:00 +16°C° 0 mm 3 mps 766 mmHg 39%
    03:00 +16°C° 0 mm 3 mps 766 mmHg 41%
    04:00 +16°C° 0 mm 3 mps 766 mmHg 43%
    05:00 +16°C° 0 mm 3 mps 766 mmHg 45%
    06:00 +16°C° 0 mm 3 mps 766 mmHg 45%
    07:00 +17°C° 0 mm 3 mps 766 mmHg 45%
    08:00 +17°C° 0 mm 3 mps 767 mmHg 44%
    09:00 +19°C° 0 mm 3 mps 767 mmHg 40%
    10:00 +21°C° 0 mm 3 mps 766 mmHg 35%
    11:00 +24°C° 0 mm 3 mps 766 mmHg 30%
    12:00 +25°C° 0 mm 3 mps 766 mmHg 29%
    13:00 +26°C° 0 mm 2 mps 765 mmHg 28%
    14:00 +27°C° 0 mm 1 mps 765 mmHg 26%
    15:00 +26°C° 0 mm 2 mps 765 mmHg 30%
    16:00 +25°C° 0 mm 2 mps 765 mmHg 33%
    17:00 +24°C° 0 mm 2 mps 765 mmHg 36%
    18:00 +22°C° 0 mm 3 mps 765 mmHg 40%
    19:00 +20°C° 0 mm 3 mps 766 mmHg 44%
    20:00 +19°C° 0 mm 3 mps 766 mmHg 48%
    21:00 +18°C° 0 mm 3 mps 766 mmHg 49%
    22:00 +18°C° 0 mm 3 mps 766 mmHg 49%
    23:00 +18°C° 0 mm 3 mps 766 mmHg 50%

    Day after tomorrow, 23 April, Tuesday

    Time Temperature Precipitation Wind Pressure Humidity
    00:00 +17°C° 0 mm 3 mps 766 mmHg 50%
    01:00 +17°C° 0 mm 3 mps 766 mmHg 51%
    02:00 +17°C° 0 mm 3 mps 766 mmHg 51%
    03:00 +17°C° 0 mm 3 mps 767 mmHg 52%
    04:00 +16°C° 0 mm 3 mps 767 mmHg 52%
    05:00 +16°C° 0 mm 3 mps 767 mmHg 52%
    06:00 +17°C° 0 mm 3 mps 767 mmHg 50%
    07:00 +17°C° 0 mm 3 mps 767 mmHg 48%
    08:00 +18°C° 0 mm 3 mps 767 mmHg 46%
    09:00 +20°C° 0 mm 3 mps 767 mmHg 40%
    10:00 +24°C° 0 mm 2 mps 767 mmHg 35%
    11:00 +26°C° 0 mm 2 mps 767 mmHg 30%
    12:00 +27°C° 0 mm 2 mps 767 mmHg 29%
    13:00 +28°C° 0 mm 2 mps 766 mmHg 28%
    14:00 +29°C° 0 mm 2 mps 766 mmHg 26%
    15:00 +28°C° 0 mm 2 mps 766 mmHg 30%
    16:00 +27°C° 0 mm 3 mps 766 mmHg 34%
    17:00 +26°C° 0 mm 3 mps 766 mmHg 38%
    18:00 +24°C° 0 mm 3 mps 766 mmHg 42%
    19:00 +22°C° 0 mm 3 mps 766 mmHg 46%
    20:00 +20°C° 0 mm 3 mps 767 mmHg 50%
    21:00 +20°C° 0 mm 3 mps 767 mmHg 49%
    22:00 +20°C° 0 mm 3 mps 768 mmHg 49%
    23:00 +19°C° 0 mm 2 mps 768 mmHg 48%

    24 April, Wednesday

    Time Temperature Precipitation Wind Pressure Humidity
    00:00 +19°C° 0 mm 3 mps 768 mmHg 47%
    01:00 +19°C° 0 mm 3 mps 768 mmHg 46%
    02:00 +19°C° 0 mm 3 mps 767 mmHg 44%
    03:00 +19°C° 0 mm 3 mps 767 mmHg 46%
    04:00 +19°C° 0 mm 4 mps 767 mmHg 48%
    05:00 +18°C° 0 mm 4 mps 767 mmHg 49%
    06:00 +19°C° 0 mm 4 mps 768 mmHg 50%
    07:00 +19°C° 0 mm 4 mps 768 mmHg 50%
    08:00 +19°C° 0 mm 4 mps 768 mmHg 50%
    09:00 +22°C° 0 mm 4 mps 768 mmHg 44%
    10:00 +25°C° 0 mm 4 mps 768 mmHg 38%
    11:00 +27°C° 0 mm 4 mps 768 mmHg 32%
    12:00 +28°C° 0 mm 3 mps 767 mmHg 31%
    13:00 +29°C° 0 mm 3 mps 767 mmHg 30%
    14:00 +30°C° 0 mm 3 mps 766 mmHg 29%
    15:00 +29°C° 0 mm 3 mps 766 mmHg 30%
    16:00 +28°C° 0 mm 2 mps 766 mmHg 32%
    17:00 +28°C° 0 mm 2 mps 766 mmHg 33%
    18:00 +26°C° 0 mm 2 mps 766 mmHg 36%
    19:00 +25°C° 0 mm 2 mps 766 mmHg 39%
    20:00 +23°C° 0 mm 2 mps 767 mmHg 42%
    21:00 +22°C° 0 mm 3 mps 767 mmHg 42%
    22:00 +22°C° 0 mm 3 mps 767 mmHg 42%
    23:00 +21°C° 0 mm 3 mps 767 mmHg 42%

    25 April, Thursday

    Time Temperature Precipitation Wind Pressure Humidity
    00:00 +21°C° 0 mm 4 mps 767 mmHg 43%
    01:00 +21°C° 0 mm 4 mps 767 mmHg 45%
    02:00 +20°C° 0 mm 4 mps 766 mmHg 46%
    03:00 +20°C° 0 mm 4 mps 766 mmHg 48%
    04:00 +19°C° 0 mm 4 mps 766 mmHg 49%
    05:00 +19°C° 0 mm 4 mps 766 mmHg 51%
    06:00 +19°C° 0 mm 4 mps 767 mmHg 49%
    07:00 +20°C° 0 mm 4 mps 767 mmHg 47%
    08:00 +20°C° 0 mm 4 mps 768 mmHg 46%
    09:00 +22°C° 0 mm 4 mps 768 mmHg 41%
    10:00 +25°C° 0 mm 4 mps 767 mmHg 35%
    11:00 +28°C° 0 mm 4 mps 767 mmHg 30%
    12:00 +28°C° 0 mm 3 mps 767 mmHg 29%
    13:00 +29°C° 0 mm 3 mps 766 mmHg 28%
    14:00 +30°C° 0 mm 3 mps 765 mmHg 27%
    15:00 +29°C° 0 mm 3 mps 765 mmHg 28%
    16:00 +29°C° 0 mm 3 mps 765 mmHg 30%
    17:00 +28°C° 0 mm 3 mps 765 mmHg 31%
    18:00 +27°C° 0 mm 3 mps 765 mmHg 33%
    19:00 +25°C° 0 mm 3 mps 766 mmHg 35%
    20:00 +24°C° 0 mm 3 mps 766 mmHg 37%
    21:00 +24°C° 0 mm 3 mps 766 mmHg 37%
    22:00 +22°C° 0 mm 4 mps 766 mmHg 38%
    23:00 +22°C° 0 mm 4 mps 767 mmHg 39%

    26 April, Friday

    Time Temperature Precipitation Wind Pressure Humidity
    00:00 +22°C° 0 mm 5 mps 766 mmHg 43%
    01:00 +21°C° 0 mm 5 mps 766 mmHg 47%
    02:00 +21°C° 0 mm 5 mps 766 mmHg 51%
    03:00 +20°C° 0 mm 5 mps 766 mmHg 54%
    04:00 +20°C° 0 mm 5 mps 766 mmHg 57%
    05:00 +19°C° 0 mm 6 mps 766 mmHg 60%
    06:00 +19°C° 0 mm 6 mps 767 mmHg 59%
    07:00 +20°C° 0 mm 6 mps 767 mmHg 59%
    08:00 +20°C° 0 mm 6 mps 767 mmHg 58%
    09:00 +22°C° 0 mm 5 mps 767 mmHg 51%
    10:00 +25°C° 0 mm 5 mps 767 mmHg 43%
    11:00 +27°C° 0 mm 5 mps 767 mmHg 36%
    12:00 +28°C° 0 mm 5 mps 766 mmHg 33%
    13:00 +29°C° 0 mm 4 mps 765 mmHg 31%
    14:00 +30°C° 0 mm 4 mps 765 mmHg 28%
    15:00 +29°C° 0 mm 3 mps 765 mmHg 29%
    16:00 +29°C° 0 mm 3 mps 765 mmHg 30%
    17:00 +28°C° 0 mm 2 mps 765 mmHg 30%
    18:00 +27°C° 0 mm 3 mps 765 mmHg 32%
    19:00 +25°C° 0 mm 3 mps 765 mmHg 35%
    20:00 +24°C° 0 mm 3 mps 766 mmHg 37%
    21:00 +23°C° 0 mm 4 mps 766 mmHg 37%
    22:00 +23°C° 0 mm 4 mps 766 mmHg 37%
    23:00 +23°C° 0 mm 4 mps 766 mmHg 37%
    Show more